KI7YRV Weather Reports


time (UTC)temp
C
wind
direction
speed
KPH
gust
KPH
rain 1hr
cm
rain 24hr
cm
rain mn
cm
humidity
%
barometer
mb
20260502123041 2 195 3.2 4.8 0.00 0.00 0.00 61 1023.1
20260502122025 2 281 3.2 4.8 0.00 0.00 0.00 63 1023.1
20260502121029 1 259 4.8 6.4 0.00 0.00 0.00 62 1023.1
20260502115020 2 309 1.6 4.8 0.00 0.00 0.00 60 1023.1
20260502114025 3 287 9.7 11.3 0.00 0.00 0.00 59 1023.2
20260502113029 2 321 9.7 12.9 0.00 0.00 0.00 63 1023.2
20260502112015 1 38 3.2 4.8 0.00 0.00 0.00 68 1023.2
20260502111020 1 70 3.2 4.8 0.00 0.00 0.00 68 1023.2
20260502110024 1 16 1.6 3.2 0.00 0.00 0.00 66 1023.4
20260502105029 2 338 1.6 3.2 0.00 0.00 0.00 65 1023.4
20260502104015 2 317 4.8 6.4 0.00 0.00 0.00 65 1023.4
20260502103039 2 17 6.4 6.4 0.00 0.00 0.00 67 1023.4
20260502102024 2 35 4.8 6.4 0.00 0.00 0.00 66 1023.4
20260502101028 2 31 6.4 8.0 0.00 0.00 0.00 66 1023.4
20260502091018 5 357 4.8 8.0 0.00 0.00 0.00 57 1023.2
20260502071017 6 171 6.4 9.7 0.00 0.00 0.00 48 1023.6
20260502070021 6 155 6.4 8.0 0.00 0.00 0.00 49 1023.6
20260502065045 6 152 9.7 9.7 0.00 0.00 0.00 48 1023.6
20260502064029 6 170 6.4 8.0 0.00 0.00 0.00 50 1023.6
20260502063016 5 132 6.4 6.4 0.00 0.00 0.00 50 1023.6
20260502062020 6 135 6.4 6.4 0.00 0.00 0.00 50 1023.6
20260502061025 6 171 8.0 9.7 0.00 0.00 0.00 47 1023.7
20260502060029 6 143 6.4 6.4 0.00 0.00 0.00 44 1023.6
20260502055015 6 155 6.4 6.4 0.00 0.00 0.00 44 1023.6
20260502054100 7 118 6.4 8.0 0.00 0.00 0.00 41 1023.6
20260502053044 8 167 4.8 6.4 0.00 0.00 0.00 39 1023.6
20260502052029 8 171 4.8 8.0 0.00 0.00 0.00 38 1023.5
20260502051015 8 191 6.4 6.4 0.00 0.00 0.00 38 1023.5
20260502050019 7 214 4.8 6.4 0.00 0.00 0.00 39 1023.5
20260502045024 8 220 8.0 11.3 0.00 0.00 0.00 38 1023.4
20260502044028 8 113 8.0 8.0 0.00 0.00 0.00 34 1023.4
20260502043033 8 113 8.0 8.0 0.00 0.00 0.00 34 1023.3
20260502042019 10 113 6.4 8.0 0.00 0.00 0.00 33 1023.2
20260502041023 10 113 8.0 8.0 0.00 0.00 0.00 33 1023.4
20260502040027 10 113 8.0 8.0 0.00 0.00 0.00 33 1023.1
20260502035032 10 113 6.4 6.4 0.00 0.00 0.00 33 1023.1
20260502034018 10 113 6.4 8.0 0.00 0.00 0.00 33 1023.0
20260502033043 10 113 8.0 8.0 0.00 0.00 0.00 33 1023.0
20260502032027 10 113 8.0 8.0 0.00 0.00 0.00 33 1022.9
20260502031025 11 113 8.0 8.0 0.00 0.00 0.00 31 1022.9
20260502030018 11 113 8.0 9.7 0.00 0.00 0.00 31 1022.6
20260502025022 11 107 9.7 9.7 0.00 0.00 0.00 31 1022.4
20260502024021 11 105 9.7 9.7 0.00 0.00 0.00 31 1022.3
20260502023019 11 110 9.7 9.7 0.00 0.00 0.00 31 1022.3
20260502022018 12 113 8.0 9.7 0.00 0.00 0.00 30 1022.3
20260502021016 13 113 9.7 9.7 0.00 0.00 0.00 27 1022.2
20260502020026 14 107 8.0 8.0 0.00 0.00 0.00 27 1022.0
20260502015031 15 87 6.4 8.0 0.00 0.00 0.00 27 1022.0
20260502014037 16 102 8.0 9.7 0.00 0.00 0.00 25 1022.0
20260502013021 16 93 8.0 11.3 0.00 0.00 0.00 24 1021.9
20260502012026 17 56 11.3 12.9 0.00 0.00 0.00 24 1021.8
20260502011051 -17 0.0 0.0 0.00 0.00 0.00 1022.0
20260502010017 18 360 11.3 14.5 0.00 0.00 0.00 23 1022.0
20260502005021 18 193 1.6 4.8 0.00 0.00 0.00 23 1022.0
20260502004025 18 69 8.0 9.7 0.00 0.00 0.00 23 1022.0
20260502003029 18 42 11.3 14.5 0.00 0.00 0.00 23 1022.0
20260502002015 18 315 8.0 12.9 0.00 0.00 0.00 23 1022.0
20260502001020 17 245 3.2 6.4 0.00 0.00 0.00 24 1022.0
20260502000024 18 282 11.3 16.1 0.00 0.00 0.00 23 1022.0
20260501235049 18 337 12.9 16.1 0.00 0.00 0.00 24 1022.0
20260501234116 18 251 8.0 12.9 0.00 0.00 0.00 23 1022.0
20260501233019 19 40 14.5 19.3 0.00 0.00 0.00 23 1022.0
20260501232044 18 18 14.5 17.7 0.00 0.00 0.00 24 1022.0
20260501231028 18 296 8.0 11.3 0.00 0.00 0.00 24 1022.0
20260501230015 18 287 8.0 11.3 0.00 0.00 0.00 24 1022.0
20260501225019 17 289 11.3 19.3 0.00 0.00 0.00 25 1022.0
20260501224024 17 323 9.7 16.1 0.00 0.00 0.00 25 1022.2
20260501223028 18 267 17.7 22.5 0.00 0.00 0.00 25 1022.2
20260501222032 18 19 11.3 16.1 0.00 0.00 0.00 24 1022.2
20260501221019 18 77 6.4 11.3 0.00 0.00 0.00 24 1022.4
20260501220023 18 24 14.5 19.3 0.00 0.00 0.00 25 1022.4
20260501215027 18 350 16.1 20.9 0.00 0.00 0.00 25 1022.6
20260501214032 18 28 19.3 24.1 0.00 0.00 0.00 25 1022.6
20260501213018 18 309 9.7 19.3 0.00 0.00 0.00 26 1022.7
20260501212042 17 264 11.3 16.1 0.00 0.00 0.00 27 1022.8
20260501211026 18 303 14.5 24.1 0.00 0.00 0.00 25 1023.0
20260501210025 18 337 9.7 22.5 0.00 0.00 0.00 26 1023.1
20260501205017 18 7 16.1 19.3 0.00 0.00 0.00 26 1023.1
20260501204022 17 306 16.1 20.9 0.00 0.00 0.00 26 1023.1
20260501203020 17 267 19.3 24.1 0.00 0.00 0.00 26 1023.1
20260501202019 18 130 8.0 16.1 0.00 0.00 0.00 26 1023.2
20260501201138 18 26 8.0 14.5 0.00 0.00 0.00 26 1023.2
20260501200016 18 31 12.9 17.7 0.00 0.00 0.00 27 1023.2
20260501195026 17 38 12.9 20.9 0.00 0.00 0.00 27 1023.5
20260501194030 17 358 12.9 29.0 0.00 0.00 0.00 27 1023.5
20260501193016 17 303 6.4 14.5 0.00 0.00 0.00 27 1023.5
20260501192020 17 6.4 6.4 0.00 0.00 0.00 27 1023.5
20260501191024 17 323 14.5 24.1 0.00 0.00 0.00 27 1023.5
20260501190028 16 2 12.9 19.3 0.00 0.00 0.00 27 1023.5
20260501185015 15 271 16.1 22.5 0.00 0.00 0.00 28 1023.7
20260501184039 16 299 14.5 19.3 0.00 0.00 0.00 28 1023.7
20260501183023 15 280 12.9 20.9 0.00 0.00 0.00 29 1023.7
20260501182028 15 282 16.1 19.3 0.00 0.00 0.00 30 1023.7
20260501181032 15 22 8.0 14.5 0.00 0.00 0.00 30 1023.9
20260501180018 15 260 11.3 24.1 0.00 0.00 0.00 30 1023.8
20260501175143 15 22 8.0 16.1 0.00 0.00 0.00 30 1024.1
20260501174027 15 314 12.9 20.9 0.00 0.00 0.00 31 1024.1
20260501173032 14 307 9.7 16.1 0.00 0.00 0.00 31 1024.1
20260501172038 13 2 12.9 16.1 0.00 0.00 0.00 32 1024.2
20260501171022 14 37 9.7 14.5 0.00 0.00 0.00 32 1024.2
20260501170026 13 313 14.5 17.7 0.00 0.00 0.00 33 1024.1
20260501165031 13 344 9.7 17.7 0.00 0.00 0.00 34 1024.1
20260501164017 13 315 12.9 17.7 0.00 0.00 0.00 34 1024.1
20260501163021 12 299 14.5 19.3 0.00 0.00 0.00 33 1024.1
20260501162026 12 318 14.5 20.9 0.00 0.00 0.00 36 1024.1
20260501161030 12 339 12.9 17.7 0.00 0.00 0.00 38 1024.2
20260501160016 11 328 12.9 17.7 0.00 0.00 0.00 39 1024.2
20260501155041 11 325 11.3 14.5 0.00 0.00 0.00 39 1024.1
20260501154046 10 289 14.5 17.7 0.00 0.00 0.00 39 1024.3
20260501153030 10 273 16.1 19.3 0.00 0.00 0.00 42 1024.3
20260501152016 9 267 16.1 19.3 0.00 0.00 0.00 45 1024.3
20260501151021 8 251 12.9 17.7 0.00 0.00 0.00 50 1024.3
20260501150025 7 248 14.5 17.7 0.00 0.00 0.00 52 1024.3
20260501145024 7 251 12.9 16.1 0.00 0.00 0.00 53 1024.4
20260501144016 6 243 9.7 12.9 0.00 0.00 0.00 55 1024.3
20260501142019 5 267 9.7 12.9 0.00 0.00 0.00 60 1024.4